Location: Le Petit-Vavre
(46.5081°N, 1.5239°E)
Time: 21:11:22
(UTC+00:00)

SME Rocket - Pass Details

Date: 03 March 2021
Orbit: 550 x 2652 km, 99.9° (Epoch: 21 April)

Event Time Altitude Azimuth Distance (km) Brightness Sun altitude
Rises 19:07:09 0° 17° (NNE) 4,966 7.6 -15.3°
Reaches altitude 10° 19:10:49 10° 22° (NNE) 3,641 6.8 -15.9°
Maximum altitude 19:18:33 48° 95° (E) 1,370 4.3 -17.2°
Drops below altitude 10° 19:23:40 10° 169° (S) 2,412 5.9 -18.1°
Sets 19:25:41 0° 176° (S) 3,170 6.6 -18.4°
